Date String (YYYY-MM-DD hh:mm:ss) UTC,Instrument flags,absolute air pressure of the measurement (hPa),sample flow rate (lpm),inlet stack bypass flow (lpm),air temperature of the measurement (°C),ambient temperature measured by the external sensor (°C),aerosol sample conditioner tube jacket temperature (°C),OPC LED temperature (°C),internal box temperature (°C),relative humidity of the measurement (%),span deviation,mass concentration of particles derived from Lorenz-Mie calculation of OPC scattering (μg/m³),mass concentration of particles derived from Lorenz-Mie calculation of OPC scattering (μg/m³),mass concentration of particles derived from Lorenz-Mie calculation of OPC scattering (μg/m³)
DateTimeUTC,F1_M11,P_M11,Q1_M11,Q2_M11,T1_M11,T2_M11,T3_M11,T4_M11,T5_M11,U1_M11,ZSPAN_M11,X0_M11,X2_M11,X1_M11
2024-01-06 13:00:00,SystemResetWarning,0824.0,5.00,000.00,018.8,017.8,000.0,027.3,020.0,12.8,0000.0,0005.63,0003.39,0003.18
2024-01-06 13:01:00,SystemResetWarning,0824.0,5.01,000.00,018.8,017.6,000.0,027.3,020.0,12.8,0000.0,0005.72,0003.40,0003.19
2024-01-06 13:02:00,SystemResetWarning,0824.0,5.00,000.00,018.7,017.6,000.0,027.3,020.0,12.8,0000.0,0006.54,0003.39,0003.20
2024-01-06 13:03:00,SystemResetWarning,0824.0,5.00,000.00,018.7,017.5,000.0,027.3,020.0,12.8,0000.0,0006.62,0003.40,0003.19
2024-01-06 13:04:00,SystemResetWarning,0824.0,5.00,000.00,018.7,017.5,000.0,027.3,020.0,12.8,0000.0,0007.13,0003.40,0003.19
2024-01-06 13:05:00,SystemResetWarning,0824.0,5.01,000.00,018.7,017.4,000.0,027.3,020.0,12.7,0000.0,0007.17,0003.38,0003.19
2024-01-06 13:06:00,SystemResetWarning,0824.1,5.00,000.00,018.7,017.4,000.0,027.3,020.0,12.7,0000.0,0007.13,0003.38,0003.19
2024-01-06 13:07:00,SystemResetWarning,0824.1,5.00,000.00,018.7,017.3,000.0,027.3,020.0,12.7,0000.0,0007.18,0003.38,0003.18
2024-01-06 13:08:00,SystemResetWarning,0824.2,4.99,000.00,018.7,017.4,000.0,027.2,020.1,12.7,0000.0,0007.33,0003.38,0003.18
2024-01-06 13:09:00,SystemResetWarning,0824.2,5.01,000.00,018.8,018.2,000.0,027.2,020.5,12.6,0000.0,0007.28,0003.39,0003.18
2024-01-06 13:10:00,SystemResetWarning,0824.2,4.99,000.00,018.9,019.0,000.0,027.2,020.7,12.5,0000.0,0007.27,0003.39,0003.17
2024-01-06 13:11:00,SystemResetWarning,0824.1,4.99,000.00,019.0,018.9,000.0,027.2,020.3,12.4,0000.0,0007.41,0003.38,0003.16
2024-01-06 13:12:00,SystemResetWarning,0824.1,4.99,000.00,018.9,018.7,000.0,027.2,020.0,12.4,0000.0,0007.48,0003.38,0003.15
2024-01-06 13:13:00,SystemResetWarning,0824.2,5.00,000.00,018.9,018.5,000.0,027.2,020.0,12.4,0000.0,0006.74,0003.36,0003.14
2024-01-06 13:14:00,SystemResetWarning,0824.2,5.01,000.00,018.8,018.3,000.0,027.2,020.0,12.4,0000.0,0006.59,0003.34,0003.13
2024-01-06 13:15:00,SystemResetWarning,0824.3,5.00,000.00,018.8,018.2,000.0,027.2,020.0,12.3,0000.0,0006.12,0003.34,0003.13
2024-01-06 13:16:00,SystemResetWarning,0824.3,5.00,000.00,018.8,018.1,000.0,027.2,020.0,12.2,0000.0,0005.99,0003.35,0003.13
2024-01-06 13:17:00,SystemResetWarning,0824.3,5.00,000.00,018.8,018.1,000.0,027.2,020.0,12.1,0000.0,0006.46,0003.33,0003.12
2024-01-06 13:18:00,SystemResetWarning,0824.3,5.00,000.00,018.8,018.0,000.0,027.2,020.0,12.1,0000.0,0006.69,0003.33,0003.13
2024-01-06 13:19:00,SystemResetWarning,0824.3,5.00,000.00,018.8,018.0,000.0,027.2,020.0,12.0,0000.0,0006.92,0003.33,0003.13
2024-01-06 13:20:00,SystemResetWarning,0824.3,5.00,000.00,018.8,017.9,000.0,027.2,020.0,11.9,0000.0,0006.51,0003.35,0003.13
2024-01-06 13:21:00,SystemResetWarning,0824.3,5.00,000.00,018.8,017.9,000.0,027.2,020.0,11.8,0000.0,0006.42,0003.35,0003.13
2024-01-06 13:22:00,SystemResetWarning,0824.3,5.00,000.00,018.8,017.8,000.0,027.2,020.0,11.7,0000.0,0006.22,0003.35,0003.13
2024-01-06 13:23:00,SystemResetWarning,0824.3,5.00,000.00,018.8,017.8,000.0,027.2,020.0,11.7,0000.0,0006.03,0003.35,0003.13
2024-01-06 13:24:00,SystemResetWarning,0824.3,5.00,000.00,018.8,017.8,000.0,027.2,020.0,11.6,0000.0,0006.17,0003.35,0003.13
2024-01-06 13:25:00,SystemResetWarning,0824.3,5.00,000.00,018.8,017.7,000.0,027.2,020.0,11.6,0000.0,0006.26,0003.36,0003.15
2024-01-06 13:26:00,SystemResetWarning,0824.3,5.00,000.00,018.8,017.7,000.0,027.2,020.0,11.5,0000.0,0006.40,0003.38,0003.16
2024-01-06 13:27:00,SystemResetWarning,0824.3,5.00,000.00,018.8,017.6,000.0,027.2,020.0,11.5,0000.0,0006.56,0003.40,0003.17
2024-01-06 13:28:00,SystemResetWarning,0824.3,5.00,000.00,018.7,017.6,000.0,027.2,020.0,11.5,0000.0,0006.14,0003.41,0003.18
2024-01-06 13:49:00,SystemResetWarning,0824.2,5.01,000.00,018.8,018.4,000.0,027.1,020.0,11.4,0000.0,0003.39,0002.64,0002.41
2024-01-06 13:50:00,SystemResetWarning,0824.2,5.01,000.00,018.8,018.3,000.0,027.1,020.0,11.4,0000.0,0003.61,0002.64,0002.40
2024-01-06 13:51:00,SystemResetWarning,0824.2,5.01,000.00,018.8,018.2,000.0,027.1,020.0,11.4,0000.0,0003.98,0002.62,0002.37
2024-01-06 13:52:00,SystemResetWarning,0824.2,5.00,000.00,018.8,018.1,000.0,027.1,020.0,11.4,0000.0,0004.03,0002.62,0002.35
2024-01-06 13:53:00,SystemResetWarning,0824.2,5.00,000.00,018.8,018.0,000.0,027.1,020.0,11.4,0000.0,0004.11,0002.65,0002.35
2024-01-06 13:54:00,SystemResetWarning,0824.2,5.00,000.00,018.8,017.9,000.0,027.1,020.0,11.3,0000.0,0004.16,0002.68,0002.37
2024-01-06 13:55:00,SystemResetWarning,0824.2,5.00,000.00,018.7,017.8,000.0,027.1,020.0,11.3,0000.0,0004.94,0002.74,0002.38
2024-01-06 13:56:00,SystemResetWarning,0824.2,4.99,000.00,018.7,017.7,000.0,027.2,020.0,11.3,0000.0,0005.19,0002.76,0002.41
2024-01-06 13:57:00,SystemResetWarning,0824.1,5.00,000.00,018.7,017.6,000.0,027.2,020.0,11.3,0000.0,0004.97,0002.75,0002.42
2024-01-06 13:58:00,SystemResetWarning,0824.2,5.00,000.00,018.7,017.6,000.0,027.2,020.0,11.3,0000.0,0004.94,0002.74,0002.43
2024-01-06 13:59:00,SystemResetWarning,0824.2,5.00,000.00,018.7,017.6,000.0,027.2,020.0,11.2,0000.0,0005.02,0002.79,0002.45
